Location: Bern�tre
(50.1974°N, 2.0915°E)
Time: 06:32:14
(UTC+00:00)

CREW DRAGON DEMO-1 DEB - Pass Details

Date: 18 September 2020
Orbit: 361 x 363 km, 51.6° (Epoch: 27 October)

Event Time Altitude Azimuth Distance (km) Brightness Sun altitude
Rises 18:31:57 0° 265° (W) 2,194 8.6 -6.3°
Reaches altitude 10° 18:33:59 10° 268° (W) 1,349 7.2 -6.6°
Maximum altitude 18:36:59 69° 352° (N) 393 3.0 -7.1°
Drops below altitude 10° 18:40:00 10° 77° (ENE) 1,355 5.1 -7.5°
Enters shadow 18:40:13 - 77° (ENE) 1,444 5.2 -7.6°
